Location: Newark
(44.3681°N, 100.3364°W)
Time: 02:25:12
(UTC+00:00)

deb Explorer IX - Pass Details

Date: 22 February 2020
Orbit: 548 x 1100 km, 38.8° (Epoch: 08 April)

Event Time Altitude Azimuth Distance (km) Brightness Sun altitude
Rises 19:16:18 0° 257° (WSW) 2,755 ? 35.2°
Reaches altitude 10° 19:18:41 10° 250° (WSW) 1,828 ? 35.2°
Maximum altitude 19:22:32 38° 181° (S) 837 ? 35.1°
Drops below altitude 10° 19:26:23 10° 112° (ESE) 1,833 ? 35.0°
Sets 19:28:47 0° 105° (ESE) 2,764 ? 34.9°
